Location: Billigheim
(49.1381°N, 8.0997°E)
Time: 07:40:51
(UTC+00:00)

Daily predictions for brighter satellites

Satellite Brightness Start Highest point End
(mag) Time Altitude Azimuth Time Altitude Azimuth Time Altitude Azimuth
Okean 2 Rocket 4.4 19:35:18 10° SSW 19:39:37 47° WNW 19:43:59 10° N
MetOp-B 4.2 19:34:23 10° SSE 19:39:44 83° ENE 19:45:07 10° NNW
Cosmos 1459 Rocket 4.3 19:35:28 10° SSW 19:41:39 73° W 19:47:47 10° N
Cosmos 1980 Rocket 3.2 19:37:26 10° NW 19:42:52 46° WSW 19:48:14 10° S
Cosmos 2061 Rocket 4.3 19:37:11 10° SSE 19:43:09 51° E 19:49:14 10° NNE
CZ-4 R/B 2.1 19:41:06 10° S 19:44:36 46° W 19:48:08 10° NNW
USA 186 2.6 19:43:10 10° SE 19:45:32 27° ENE 19:47:56 10° N
Cosmos 2228 2.9 19:41:40 10° S 19:45:44 63° E 19:49:48 10° NNE
COSMOS 2406 3.7 19:40:56 10° S 19:46:16 41° ESE 19:51:37 10° NE
Cosmos 2084 Rocket 4.3 19:43:44 10° NW 19:47:45 44° SW 19:51:48 10° SSE
SL-08 R/B 3.5 19:43:21 10° NNE 19:48:03 51° E 19:52:38 10° S
Cosmos 1743 3.1 19:46:25 10° NNW 19:49:21 47° W 19:52:16 10° S
ISS -3.2 19:46:07 10° W 19:49:26 59° N 19:52:46 10° ENE
Cosmos 1461 3.3 19:46:52 10° S 19:50:11 31° ESE 19:53:29 10° NE
Cosmos 1455 Rocket 3.3 19:46:06 10° SSW 19:50:30 75° W 19:54:54 10° N
Cosmos 1992 Rocket 4.1 19:45:30 10° S 19:50:34 55° ESE 19:55:40 10° NNE
Cosmos 1802 Rocket 4.1 19:45:17 10° SSW 19:51:28 81° W 19:57:38 10° N
Cosmos 1892 Rocket 4.0 19:47:18 10° NNW 19:51:34 61° W 19:55:47 10° S
SKYMED 3 4.3 19:47:59 10° NNE 19:51:56 65° ESE 19:55:52 10° S
Terra 2.0 19:47:58 10° S 19:52:39 75° WSW 19:57:23 10° NNW
Okean O Rocket 1.7 19:53:03 10° SSE 19:57:16 60° ENE 20:01:31 10° N
Cosmos 2333 Rocket 2.6 19:53:24 10° NNW 19:59:02 56° NE 20:04:29 11° SE
NOSS 3-3 (A) 3.7 19:58:56 10° SW 20:04:07 84° SE 20:10:23 10° NE
Cosmos 1544 Rocket 4.0 20:00:13 10° SSE 20:04:18 43° E 20:08:24 10° NNE
Cosmos 1437 Rocket 3.3 20:03:32 10° SSE 20:06:46 34° E 20:10:03 10° NNE
Cosmos 2360 Rocket 2.9 20:03:36 10° NNW 20:09:00 42° NE 20:13:59 12° ESE
Helios 1A Rocket 3.2 20:06:19 10° N 20:09:24 51° WNW 20:12:27 10° SSW
CZ-4B R/B 3.8 20:07:28 10° S 20:13:02 59° WSW 20:18:35 10° NNW
Cosmos 2233 Rocket 4.1 20:08:50 10° S 20:15:02 84° W 20:21:14 10° N
Okean-O 2.6 20:15:03 10° SSE 20:19:25 85° WSW 20:23:50 10° NNW
Cosmos 1486 Rocket 4.4 20:14:29 10° NNW 20:19:39 51° ENE 20:23:55 15° SE
Cosmos 909 Rocket 4.1 20:15:03 10° SW 20:21:22 88° NW 20:27:56 10° NE
Cosmos 1758 Rocket 3.5 20:17:13 10° N 20:21:39 83° E 20:25:51 11° S
Cosmos 2219 Rocket 3.2 20:16:28 10° NNW 20:21:39 35° NE 20:26:24 12° ESE
CZ-2C R/B 3.8 20:21:09 14° ESE 20:22:29 19° ENE 20:24:33 10° NNE
DNEPR-1 R/B 4.4 20:24:04 10° NW 20:29:31 81° NE 20:34:57 16° SE
Nadezhda 4 Rocket 4.5 20:25:00 10° N 20:30:51 45° ENE 20:35:26 16° SE
USA 245 4.3 20:25:40 13° SSE 20:30:58 74° ENE 20:36:26 10° N
Meteor 1-25 Rocket 4.3 20:25:26 10° N 20:31:06 68° ENE 20:35:41 15° SSE
IRS-1C Rocket 4.4 20:27:08 15° SE 20:31:21 55° ENE 20:36:31 10° N
Cosmos 1825 Rocket 4.4 20:30:14 10° N 20:34:14 35° ENE 20:36:52 18° SE
Cosmos 1805 3.3 20:31:44 10° N 20:34:52 42° ENE 20:36:34 22° SE
Cosmos 220 Rocket 3.9 20:32:40 10° S 20:36:38 58° ESE 20:40:41 10° NNE
NOSS 3-3 (C) 4.0 20:31:25 10° SW 20:36:43 75° NW 20:43:08 10° NE
Cosmos 2322 Rocket 2.3 20:35:59 10° NNW 20:41:40 72° ENE 20:45:49 19° SE
Cosmos 1602 Rocket 3.5 20:41:16 10° N 20:45:37 84° ENE 20:48:43 19° SSE
USA 306 3.9 20:43:20 10° WNW 20:45:40 22° NNW 20:47:19 10° NE
Cosmos 2082 Rocket 3.6 20:41:02 10° WSW 20:46:26 42° NW 20:51:51 10° NNE
NOSS 3-4 (A) 3.8 20:42:27 10° NW 20:49:08 89° SW 20:55:07 19° SE
NOSS 3-4 (C) 3.8 20:43:05 10° NW 20:49:48 89° SW 20:55:45 19° SE
Cosmos 1707 4.4 20:52:04 11° ENE 20:52:04 11° ENE 20:52:46 10° ENE
CZ-4B R/B 2.4 20:49:58 22° S 20:52:01 80° WSW 20:55:31 10° NNW
Cosmos 2151 3.5 20:51:49 10° NNW 20:55:50 52° W 20:59:05 15° SSW
Cosmos 2098 Rocket 3.0 20:53:24 17° S 20:57:02 69° E 21:01:06 10° NNE
Cosmos 1076 Rocket 4.0 20:54:14 10° N 20:58:18 43° ENE 21:00:20 25° SE
Cosmos 44 4.3 20:53:40 10° NNW 20:58:53 46° NE 21:02:45 17° ESE
Cosmos 2237 Rocket 4.5 20:55:46 10° N 20:59:10 16° NNE 21:02:34 10° ENE
CZ-4C R/B 4.4 20:56:19 10° WNW 21:00:22 25° NNW 21:05:23 10° NE
Ariane Rocket 3.0 20:59:02 20° SSE 21:02:34 86° WSW 21:07:40 10° NNW
Cosmos 2278 4.1 21:03:11 10° NW 21:08:46 56° WSW 21:12:37 20° S
SL-16 R/B 3.1 21:07:25 10° NW 21:12:42 41° WSW 21:16:43 17° S
SPOT 3 Rocket 4.0 21:09:24 17° S 21:13:15 56° W 21:18:19 10° NNW
COSMOS 2428 4.0 21:08:27 10° NNW 21:13:31 31° NE 21:17:37 14° ESE
Meteor 1-5 Rocket 4.3 21:07:49 10° NNW 21:13:36 81° W 21:17:38 21° S
Cosmos 1763 Rocket 3.6 21:10:53 20° S 21:14:22 56° ESE 21:19:32 10° NNE
USA 186 4.2 21:13:26 10° SW 21:14:57 14° W 21:16:30 10° WNW
USA 290 2.0 21:18:07 32° SSW 21:19:27 89° E 21:22:36 10° NNE
Cosmos 1606 Rocket 3.4 21:17:14 23° S 21:19:54 88° ESE 21:24:15 10° N
Cosmos 990 Rocket 3.9 21:18:12 10° NNW 21:23:25 80° ENE 21:26:04 30° SSE
Cosmos 1464 Rocket 4.0 21:18:41 15° S 21:23:52 85° W 21:30:07 10° N
Helios 1B rocket 3.5 21:24:22 21° E 21:25:19 24° ENE 21:28:11 10° N
CZ-4B R/B 4.0 21:23:15 20° SSW 21:26:18 50° W 21:31:02 10° NNW
Cosmos 1461 4.4 21:23:03 10° WSW 21:26:25 32° NW 21:29:46 10° NNE
ISS -3.4 21:23:09 10° WNW 21:26:29 62° N 21:28:15 25° E
Okean 1 2.9 21:25:54 34° S 21:27:20 88° W 21:30:57 10° N
Cosmos 1726 Rocket 3.2 21:25:49 32° S 21:27:35 78° E 21:31:39 10° NNE
BREEZE-M DEB (TANK) 1.2 21:26:02 10° W 21:28:12 64° WNW 21:28:12 64° WNW
Okean O Rocket 4.0 21:31:10 10° SW 21:33:50 16° W 21:36:32 10° NW
Cosmos 1536 3.2 21:32:39 10° N 21:36:12 44° ENE 21:36:59 38° ESE
Cosmos-2242 3.0 21:37:48 41° SSE 21:38:56 57° E 21:42:59 10° NNE
Cosmos 1092 Rocket 4.0 21:35:58 10° N 21:42:09 73° E 21:45:20 30° SSE
Cosmos 2333 Rocket 3.7 21:38:13 10° NW 21:43:00 28° WSW 21:46:30 16° SSW
KORONAS-FOTON 4.1 21:43:53 38° E 21:43:53 38° E 21:47:03 10° NNE
Cosmos 2297 Rocket 3.9 21:46:14 16° ESE 21:46:41 16° E 21:49:59 10° ENE
Cosmos 841 Rocket 4.5 21:47:26 27° ESE 21:48:19 29° E 21:52:46 10° NE
Cosmos 1833 4.2 21:44:13 14° SSW 21:49:11 86° WNW 21:54:51 10° NNE
Cosmos 2360 Rocket 3.1 21:47:43 10° NW 21:52:57 39° WSW 21:55:44 24° SSW
CZ-2C R/B 4.0 21:52:45 19° WSW 21:53:09 20° W 21:55:17 10° NW
Cosmos 1842 3.7 21:56:49 35° ENE 21:56:49 35° ENE 21:59:21 10° NNE
Cosmos 1766 2.6 21:53:19 10° NNW 21:56:33 79° W 21:56:45 73° SW
Cosmos 2322 3.9 21:51:55 10° NNW 21:57:36 63° ENE 22:00:18 31° SE
Cosmos 1975 3.7 21:55:26 10° N 21:58:46 31° ENE 21:59:14 30° E
Cosmos 2034 Rocket 4.3 21:58:36 20° SSW 22:03:05 68° WNW 22:09:25 10° N
Cosmos 372 Rocket 3.9 21:58:25 10° NNW 22:03:34 80° ENE 22:05:24 40° SSE
Cosmos 2221 3.3 22:03:18 32° ESE 22:03:42 32° E 22:07:27 10° NNE
Cosmos 2219 Rocket 2.7 22:00:20 10° NW 22:05:46 48° WSW 22:08:05 31° SSW
Cosmos 1271 Rocket 3.0 22:06:21 43° E 22:06:21 43° E 22:09:19 10° NNE
SL-08 ROCKET BODY 4.5 22:04:45 10° N 22:10:57 73° E 22:13:38 36° SSE
Cosmos 540 Rocket 3.9 22:07:44 17° SW 22:11:39 58° WNW 22:16:44 10° NNE
Helios 1A 2.9 22:13:12 10° N 22:17:07 72° WNW 22:18:07 47° SW
Cosmos 2279 Rocket 4.0 22:16:40 36° SSE 22:19:18 70° E 22:25:33 10° NNE
RESURS DK-1 2.2 22:16:09 10° NNW 22:20:09 80° ENE 22:20:45 62° SE
Aureole 1 Rocket 4.2 22:15:49 10° NNW 22:21:37 62° WSW 22:24:34 34° S
Cosmos 1707 3.4 22:23:33 31° WNW 22:23:34 31° WNW 22:26:09 10° N
Cosmos 2322 Rocket 4.0 22:20:59 10° NW 22:25:06 21° W 22:27:37 16° SW
Cosmos 1634 Rocket 4.0 22:22:33 31° SSW 22:25:42 78° W 22:31:57 10° N
Cosmos 1937 Rocket 3.5 22:23:19 10° NNW 22:28:28 72° ENE 22:30:09 42° SE
TSX-5 3.9 22:27:12 10° NW 22:29:55 48° W 22:29:55 48° W
SL-16 R/B 4.4 22:28:22 10° N 22:32:34 21° NE 22:36:45 10° E
Cosmos 2058 Rocket 3.7 22:30:59 32° SW 22:32:35 48° WNW 22:36:47 10° N
Geosat 4.1 22:27:49 10° NNE 22:32:49 71° WNW 22:35:38 26° SW
Cosmos 468 Rocket 4.2 22:30:14 28° SW 22:33:02 68° WNW 22:38:17 10° NNE
CZ-2C R/B 3.6 22:28:55 10° NNE 22:33:23 69° ESE 22:34:15 54° SSE
GP-B 3.9 22:31:29 10° NNE 22:35:32 36° E 22:36:11 34° ESE
BREEZE-M DEB 4.5 22:32:42 10° WSW 22:37:30 66° SSE 22:52:01 10° E
Meteor 2-9 Rocket 4.1 22:34:12 10° NNW 22:39:37 85° W 22:41:24 45° S
Cosmos 44 4.1 22:35:01 10° NW 22:40:00 39° WSW 22:41:01 36° SW
CZ-2C R/B 3.8 22:39:09 22° ESE 22:41:36 34° ENE 22:46:13 10° N
Lacrosse 4 Rocket 3.1 22:42:43 19° E 22:42:43 19° E 22:44:48 10° ENE
Cosmos 2237 Rocket 2.6 22:38:54 10° NNW 22:44:31 57° ENE 22:47:09 31° ESE
SeaSat 1 4.4 22:43:17 10° E 22:47:10 24° NE 22:51:04 10° N
Cosmos 2266 Rocket 3.9 22:42:07 10° N 22:48:10 73° E 22:50:26 40° SSE
USA 234 3.6 22:42:03 10° ENE 22:48:12 42° SE 22:49:36 37° SSE
Cosmos 1980 3.9 22:43:10 10° NNW 22:48:48 65° ENE 22:51:12 35° SE
Cosmos 1470 3.1 22:46:25 10° NNW 22:49:19 43° WNW 22:49:19 43° WNW
Intercosmos 24 4.3 22:49:35 10° N 22:53:16 43° ENE 22:53:29 42° E
ARIANE 5 R/B 2.6 22:52:41 57° SSW 22:53:26 71° WSW 22:57:55 10° NNW
ALOS 2 2.5 22:54:46 62° S 22:55:29 81° WSW 22:59:55 10° NNW
Cosmos 2227 Rocket 3.5 22:55:50 23° ESE 22:56:38 24° ESE 23:01:03 10° NE
COSMOS 2428 2.9 22:52:29 10° NW 22:58:04 56° WSW 22:59:34 43° SSW
Helios 1B rocket 3.5 22:58:18 27° W 22:58:18 27° W 23:01:15 10° NW
Meteor 2-4 Rocket 4.3 23:00:13 35° SE 23:01:37 41° E 23:06:46 10° NNE
BlueWalker 3 4.2 23:05:22 13° E 23:05:22 13° E 23:05:54 10° ENE
ISS -1.6 23:00:02 10° WNW 23:01:11 19° W 23:01:11 19° W
Cosmos 1898 Rocket 4.0 22:58:31 10° NW 23:03:28 46° WSW 23:04:34 40° SW
Cosmos 2263 Rocket 3.9 23:03:56 17° ESE 23:04:48 17° E 23:08:21 10° ENE
CZ-2C R/B 3.6 23:02:04 10° NNE 23:07:45 55° E 23:09:26 41° SSE
Meteor 1-11 Rocket 3.7 23:02:50 10° NNW 23:08:31 77° W 23:10:10 47° S
Cosmos 1766 Rocket 3.9 23:05:12 10° N 23:09:25 54° ENE 23:10:08 47° ESE
SAR-Lupe-2 3.7 23:10:57 59° NW 23:10:57 59° NW 23:13:50 10° NNW
Meteor 1-10 Rocket 4.3 23:11:29 42° SSW 23:13:38 82° WNW 23:19:38 10° N
Cosmos 1238 Rocket 3.2 23:14:04 51° ESE 23:14:19 52° E 23:18:35 10° NNE
PSLV R/B 3.5 23:12:12 10° N 23:16:30 78° WNW 23:17:16 59° SW
Cosmos 1655 Rocket 4.1 23:15:26 10° N 23:21:41 67° ENE 23:24:15 37° SSE
Alouette 2 Rocket 3.7 23:23:27 10° N 23:27:17 69° ENE 23:28:18 50° SE
Meteor 1-27 Rocket 3.7 23:25:50 45° S 23:27:43 87° ESE 23:33:29 10° NNE
NOSS 0 Rocket 4.4 23:23:26 10° NW 23:29:17 45° WSW 23:30:48 38° SSW
Cosmos 841 Rocket 4.3 23:27:23 27° WSW 23:29:52 47° WNW 23:34:56 10° NNE
Cosmos 2297 Rocket 2.1 23:27:59 44° SSW 23:29:53 90° WNW 23:35:35 10° NNE
Meteor 2-10 Rocket 4.0 23:24:28 10° N 23:29:58 60° ENE 23:32:13 35° SE
Cosmos 1975 4.4 23:30:44 10° NW 23:33:29 21° W 23:33:29 21° W
SL-14 R/B 4.4 23:39:49 31° E 23:39:58 31° E 23:43:22 10° NNE
Cosmos 2221 4.0 23:39:35 23° W 23:40:45 26° WNW 23:44:18 10° NNW
Cosmos 158 Rocket 4.1 23:39:40 49° SSE 23:40:58 66° ESE 23:46:16 10° NNE
CZ-4C R/B 4.2 23:38:56 10° NNE 23:41:47 32° E 23:41:47 32° E
MetOp-A 4.0 23:42:38 49° SW 23:43:29 57° WSW 23:48:06 10° NNW
ACS3 Solar Sail 2.5 23:38:15 10° NNE 23:43:52 40° E 23:46:10 29° SE
Landsat 5 3.5 23:44:10 10° NNE 23:48:12 59° ESE 23:48:28 57° ESE
